Home   Weather   Redlands   Past weeks

Flag for USA Past Weather in Redlands, California, USA — Yesterday and Last 2 Weeks

Now
45 °F

Clear.


Feels Like: 43 °F
Forecast: 43 / 63 °F
Wind: 5 mph from Northeast

Location: Norton Air Force Base / San Bern

Current Time: Dec 8, 2016 at 1:51:56 am

Latest Report: Dec 8, 2016 at 1:18 am


Visibility: 10 mi

Pressure: 30.18 "Hg

Humidity: 63%

Dew Point: 33 °F

Location of RedlandsLocation

Past Weather in Redlands — Graph

°F

Redlands Temperature Yesterday

Maximum temperature yesterday: 64 °F (at 2:50 pm)
Minimum temperature yesterday: 47 °F (at 11:59 pm)
Average temperature yesterday: 54 °F

High & Low Weather Summary for the Past Weeks

 TemperatureHumidityPressure
High81 °F (Nov 25, 2:47 pm)100% (Dec 2, 10:50 am)30.23 "Hg (Dec 2, 10:50 am)
Low39 °F (Nov 30, 6:38 am)9% (Nov 25, 11:39 am)29.83 "Hg (Nov 28, 4:47 pm)
Average54 °F48%30.03 "Hg
* Reported Nov 23 12:19 am — Dec 8 12:18 am, Redlands, Weather by CustomWeather, © 2016

Note: Actual official high and low records may vary slightly from our data, if they occured in-between our weather recording intervals... More about our weather records

Advertising

Redlands Weather History for the Previous 24 Hours

Scroll right to see more
 ConditionsComfort  
Time TempWeatherWind HumidityBarometerVisibility
12:18 am
Thu, Dec 8
46 °FClear.No wind61%30.17 "Hg10 mi
11:59 pm
Wed, Dec 7
47 °FClear.No wind59%30.17 "Hg10 mi
11:38 pm48 °FClear.No wind57%30.17 "Hg10 mi
11:19 pm49 °FClear.No wind56%30.17 "Hg10 mi
10:58 pm48 °FClear.3 mph59%30.17 "Hg10 mi
10:38 pm48 °FClear.5 mph59%30.17 "Hg10 mi
10:19 pm49 °FClear.No wind58%30.17 "Hg10 mi
9:58 pm50 °FClear.No wind57%30.16 "Hg10 mi
8:47 pm48 °FClear.5 mph62%30.15 "Hg10 mi
8:38 pm50 °FClear.3 mph56%30.15 "Hg10 mi
7:47 pm55 °FClear.No wind33%30.14 "Hg7 mi
7:38 pm55 °FPassing clouds.No wind36%30.14 "Hg10 mi
6:47 pm57 °FPassing clouds.No wind29%30.13 "Hg7 mi
6:38 pm57 °FPassing clouds.3 mph27%30.13 "Hg10 mi
5:50 pm59 °FPassing clouds.6 mph25%30.11 "Hg10 mi
5:39 pm59 °FClear.9 mph26%30.10 "Hg10 mi
4:47 pm59 °FPassing clouds.8 mph39%30.08 "Hg7 mi
4:38 pm60 °FSunny.7 mph31%30.08 "Hg10 mi
3:50 pm63 °FScattered clouds.5 mph25%30.07 "Hg7 mi
3:39 pm63 °FSunny.7 mph25%30.07 "Hg10 mi
2:50 pm64 °FScattered clouds.5 mph34%30.07 "Hg7 mi
1:50 pm63 °FScattered clouds.No wind34%30.06 "Hg7 mi
1:39 pm62 °FSunny.No wind37%30.07 "Hg10 mi
12:50 pm63 °FPartly sunny.No wind37%30.07 "Hg6 mi
12:39 pm61 °FSunny.No wind38%30.08 "Hg10 mi
11:49 am59 °FOvercast.No wind51%30.09 "Hg5 mi
11:39 am60 °FSunny.No wind41%30.09 "Hg10 mi
10:50 am57 °FOvercast.3 mph55%30.10 "Hg5 mi
10:39 am57 °FSunny.No wind57%30.11 "Hg10 mi
9:50 am55 °FOvercast.No wind67%30.12 "Hg5 mi
9:39 am55 °FSunny.3 mph66%30.12 "Hg10 mi
8:46 am57 °FFog.No wind51%30.10 "Hg4 mi
7:45 am50 °FMore clouds than sun.No wind67%30.08 "Hg5 mi
7:39 am51 °FOvercast.No wind63%30.08 "Hg10 mi
7:00 am50 °FFog.No wind67%30.06 "Hg4 mi
5:38 am50 °FOvercast.No wind69%30.05 "Hg10 mi
5:18 am49 °FOvercast.No wind73%30.05 "Hg10 mi
4:58 am49 °FOvercast.No wind76%30.04 "Hg10 mi
4:19 am50 °FOvercast.No wind80%30.03 "Hg10 mi
3:59 am50 °FPassing clouds.No wind78%30.02 "Hg10 mi
3:38 am50 °FPassing clouds.No wind78%30.02 "Hg10 mi
3:18 am50 °FPassing clouds.No wind77%30.02 "Hg10 mi
2:59 am48 °FPassing clouds.No wind81%30.02 "Hg10 mi
2:18 am49 °FPassing clouds.No wind81%30.03 "Hg10 mi
1:59 am51 °FPassing clouds.3 mph83%30.02 "Hg10 mi
1:38 am51 °FPartly cloudy.No wind83%30.02 "Hg10 mi
1:19 am52 °FPartly cloudy.No wind83%30.02 "Hg10 mi
Weather by CustomWeather, © 2016

See weather overviewHow to use our weather pages